Location: Unspecified
(0.0000°N, 0.0000°E)
Time: 06:36:29
(UTC+00:00)

Tiros 1 despin weight - Visible Passes

Search period start: 03 April 2020 00:00
Search period end: 13 April 2020 00:00
Orbit: 593 x 642 km, 48.2° (Epoch: 02 April)

Date Brightness Start Highest point End Pass type
(mag) Time Alt. Az. Time Alt. Az. Time Alt. Az.
03 Apr ? 05:24:19 10° SW 05:28:48 76° SE 05:33:20 10° NE visible
04 Apr ? 04:02:25 13° SSE 04:03:52 15° SE 04:06:32 10° E visible
05 Apr ? 04:19:22 35° SSE 04:20:21 40° SE 04:24:36 10° ENE visible
06 Apr ? 04:36:13 61° W 04:36:48 70° NW 04:41:18 10° NNE visible
07 Apr ? 04:52:58 25° WNW 04:53:16 25° NW 04:56:59 10° N visible
08 Apr ? 03:32:27 12° NE 03:32:27 12° NE 03:32:48 10° NE visible
09 Apr ? 03:48:57 11° NNE 03:48:57 11° NNE 03:49:05 10° NNE visible
